Time,TemperatureF,DewpointF,PressureIn,WindDirection,WindDirectionDegrees,WindSpeedMPH,WindSpeedGustMPH,Humidity,HourlyPrecipIn,Conditions,Clouds,dailyrainin,SoftwareType,DateUTC
2013-03-14 00:06:00,35.0,21.3,29.92,WNW,290,3.0,4.0,57,0.00,,,0.00,Wunderground v.1.15,2013-03-14 04:06:00,
2013-03-14 00:11:00,34.9,21.2,29.92,West,281,4.0,4.0,57,0.00,,,0.00,Wunderground v.1.15,2013-03-14 04:11:00,
2013-03-14 00:26:00,34.4,21.1,29.92,NW,313,3.0,9.0,58,0.00,,,0.00,Wunderground v.1.15,2013-03-14 04:26:00,
2013-03-14 00:46:00,34.0,20.3,29.92,WNW,294,3.0,8.0,57,0.00,,,0.00,Wunderground v.1.15,2013-03-14 04:46:00,
2013-03-14 00:56:00,33.8,20.2,29.92,West,281,2.0,3.0,57,0.00,,,0.00,Wunderground v.1.15,2013-03-14 04:56:00,
2013-03-14 01:06:00,33.5,19.9,29.92,WNW,292,3.0,6.0,57,0.00,,,0.00,Wunderground v.1.15,2013-03-14 05:06:00,
2013-03-14 01:21:00,33.2,19.2,29.93,North,360,3.0,3.0,56,0.00,,,0.00,Wunderground v.1.15,2013-03-14 05:21:00,
2013-03-14 01:31:00,32.9,18.5,29.93,WNW,288,3.0,5.0,55,0.00,,,0.00,Wunderground v.1.15,2013-03-14 05:31:00,
2013-03-14 01:46:00,32.7,18.3,29.93,NW,311,3.0,3.0,55,0.00,,,0.00,Wunderground v.1.15,2013-03-14 05:46:00,
2013-03-14 02:01:00,32.4,18.0,29.93,WNW,299,2.0,2.0,55,0.00,,,0.00,Wunderground v.1.15,2013-03-14 06:01:00,
2013-03-14 02:06:00,32.2,17.8,29.93,WNW,296,2.0,4.0,55,0.00,,,0.00,Wunderground v.1.15,2013-03-14 06:06:00,
2013-03-14 02:31:00,31.9,17.5,29.93,West,274,3.0,3.0,55,0.00,,,0.00,Wunderground v.1.15,2013-03-14 06:31:00,
2013-03-14 02:41:00,31.8,17.5,29.93,NW,321,2.0,2.0,55,0.00,,,0.00,Wunderground v.1.15,2013-03-14 06:41:00,
2013-03-14 02:51:00,31.8,17.5,29.93,WNW,287,3.0,3.0,55,0.00,,,0.00,Wunderground v.1.15,2013-03-14 06:51:00,
2013-03-14 02:56:00,31.6,17.3,29.93,NW,324,3.0,3.0,55,0.00,,,0.00,Wunderground v.1.15,2013-03-14 06:56:00,
2013-03-14 03:11:00,31.5,17.6,29.94,WNW,291,1.0,1.0,56,0.00,,,0.00,Wunderground v.1.15,2013-03-14 07:11:00,
2013-03-14 03:31:00,31.2,17.7,29.93,WNW,282,1.0,4.0,57,0.00,,,0.00,Wunderground v.1.15,2013-03-14 07:31:00,
2013-03-14 03:41:00,30.9,17.4,29.93,NNW,339,1.0,2.0,57,0.00,,,0.00,Wunderground v.1.15,2013-03-14 07:41:00,
2013-03-14 03:56:00,30.7,16.8,29.93,NNW,346,1.0,1.0,56,0.00,,,0.00,Wunderground v.1.15,2013-03-14 07:56:00,
2013-03-14 04:06:00,30.7,16.4,29.93,NNW,338,3.0,5.0,55,0.00,,,0.00,Wunderground v.1.15,2013-03-14 08:06:00,
2013-03-14 04:16:00,30.7,15.1,29.93,NNW,345,2.0,4.0,52,0.00,,,0.00,Wunderground v.1.15,2013-03-14 08:16:00,
2013-03-14 04:21:00,30.7,14.7,29.93,North,360,1.0,1.0,51,0.00,,,0.00,Wunderground v.1.15,2013-03-14 08:21:00,
2013-03-14 04:31:00,30.6,14.6,29.93,WNW,302,1.0,1.0,51,0.00,,,0.00,Wunderground v.1.15,2013-03-14 08:31:00,
2013-03-14 04:41:00,30.3,14.3,29.93,WNW,302,1.0,1.0,51,0.00,,,0.00,Wunderground v.1.15,2013-03-14 08:41:00,
2013-03-14 04:56:00,30.0,14.0,29.93,West,273,1.0,2.0,51,0.00,,,0.00,Wunderground v.1.15,2013-03-14 08:56:00,
2013-03-14 05:11:00,29.8,13.9,29.92,SW,231,0.0,1.0,51,0.00,,,0.00,Wunderground v.1.15,2013-03-14 09:11:00,
2013-03-14 05:21:00,29.5,13.6,29.93,West,281,0.0,1.0,51,0.00,,,0.00,Wunderground v.1.15,2013-03-14 09:21:00,
2013-03-14 05:31:00,29.5,14.0,29.93,West,276,2.0,2.0,52,0.00,,,0.00,Wunderground v.1.15,2013-03-14 09:31:00,
2013-03-14 05:41:00,29.7,14.2,29.93,WNW,296,2.0,2.0,52,0.00,,,0.00,Wunderground v.1.15,2013-03-14 09:41:00,
2013-03-14 05:46:00,29.7,13.8,29.93,WNW,287,1.0,2.0,51,0.00,,,0.00,Wunderground v.1.15,2013-03-14 09:46:00,
2013-03-14 05:56:00,29.8,14.3,29.93,WSW,258,2.0,5.0,52,0.00,,,0.00,Wunderground v.1.15,2013-03-14 09:56:00,
2013-03-14 06:26:00,29.8,14.7,29.94,West,279,1.0,2.0,53,0.00,,,0.00,Wunderground v.1.15,2013-03-14 10:26:00,
2013-03-14 06:41:00,30.0,16.6,29.95,WNW,298,3.0,3.0,57,0.00,,,0.00,Wunderground v.1.15,2013-03-14 10:41:00,
2013-03-14 06:51:00,29.8,17.2,29.95,WNW,282,2.0,4.0,59,0.00,,,0.00,Wunderground v.1.15,2013-03-14 10:51:00,
2013-03-14 06:56:00,29.8,17.2,29.95,NW,304,2.0,4.0,59,0.00,,,0.00,Wunderground v.1.15,2013-03-14 10:56:00,
2013-03-14 07:01:00,29.8,17.6,29.95,WNW,284,2.0,2.0,60,0.00,,,0.00,Wunderground v.1.15,2013-03-14 11:01:00,
2013-03-14 07:06:00,29.8,18.0,29.95,West,265,1.0,2.0,61,0.00,,,0.00,Wunderground v.1.15,2013-03-14 11:06:00,
2013-03-14 07:16:00,29.7,18.3,29.95,West,265,1.0,2.0,62,0.00,,,0.00,Wunderground v.1.15,2013-03-14 11:16:00,
2013-03-14 07:21:00,29.7,18.6,29.95,NNW,329,2.0,2.0,63,0.00,,,0.00,Wunderground v.1.15,2013-03-14 11:21:00,
2013-03-14 07:31:00,29.7,19.0,29.95,NW,309,2.0,2.0,64,0.00,,,0.00,Wunderground v.1.15,2013-03-14 11:31:00,
2013-03-14 07:41:00,29.8,19.5,29.95,West,273,2.0,2.0,65,0.00,,,0.00,Wunderground v.1.15,2013-03-14 11:41:00,
2013-03-14 07:51:00,29.8,19.8,29.96,WNW,293,1.0,1.0,66,0.00,,,0.00,Wunderground v.1.15,2013-03-14 11:51:00,
2013-03-14 08:06:00,30.1,20.1,29.96,NNW,331,2.0,6.0,66,0.00,,,0.00,Wunderground v.1.15,2013-03-14 12:06:00,
2013-03-14 08:26:00,30.7,20.3,29.96,NW,326,3.0,4.0,65,0.00,,,0.00,Wunderground v.1.15,2013-03-14 12:26:00,
2013-03-14 08:31:00,30.9,20.1,29.97,NW,318,2.0,5.0,64,0.00,,,0.00,Wunderground v.1.15,2013-03-14 12:31:00,
2013-03-14 08:41:00,31.2,19.7,29.97,North,360,2.0,2.0,62,0.00,,,0.00,Wunderground v.1.15,2013-03-14 12:41:00,
2013-03-14 08:51:00,31.5,19.6,29.98,NNW,344,2.0,5.0,61,0.00,,,0.00,Wunderground v.1.15,2013-03-14 12:51:00,
2013-03-14 09:06:00,31.9,19.2,29.98,NE,34,2.0,3.0,59,0.00,,,0.00,Wunderground v.1.15,2013-03-14 13:06:00,
2013-03-14 09:11:00,32.2,19.1,29.98,NW,309,2.0,6.0,58,0.00,,,0.00,Wunderground v.1.15,2013-03-14 13:11:00,
2013-03-14 09:21:00,32.7,18.3,29.98,West,261,4.0,4.0,55,0.00,,,0.00,Wunderground v.1.15,2013-03-14 13:21:00,
2013-03-14 09:26:00,32.8,18.4,29.98,NW,325,2.0,4.0,55,0.00,,,0.00,Wunderground v.1.15,2013-03-14 13:26:00,
2013-03-14 09:31:00,33.1,18.2,29.98,NW,309,3.0,8.0,54,0.00,,,0.00,Wunderground v.1.15,2013-03-14 13:31:00,
2013-03-14 09:41:00,33.4,16.7,29.98,North,351,4.0,4.0,50,0.00,,,0.00,Wunderground v.1.15,2013-03-14 13:41:00,
2013-03-14 10:06:00,33.5,15.4,29.98,NW,313,4.0,5.0,47,0.00,,,0.00,Wunderground v.1.15,2013-03-14 14:06:00,
2013-03-14 10:11:00,34.3,16.1,29.98,NNW,328,3.0,3.0,47,0.00,,,0.00,Wunderground v.1.15,2013-03-14 14:11:00,
2013-03-14 10:21:00,34.0,14.9,29.98,NW,320,5.0,5.0,45,0.00,,,0.00,Wunderground v.1.15,2013-03-14 14:21:00,
2013-03-14 10:31:00,34.3,15.6,29.98,NW,325,5.0,5.0,46,0.00,,,0.00,Wunderground v.1.15,2013-03-14 14:31:00,
2013-03-14 10:41:00,34.4,16.2,29.98,NW,308,3.0,3.0,47,0.00,,,0.00,Wunderground v.1.15,2013-03-14 14:41:00,
2013-03-14 10:51:00,34.6,15.9,29.97,NW,304,3.0,7.0,46,0.00,,,0.00,Wunderground v.1.15,2013-03-14 14:51:00,
2013-03-14 11:01:00,35.3,16.0,29.96,NW,309,5.0,5.0,45,0.00,,,0.00,Wunderground v.1.15,2013-03-14 15:01:00,
2013-03-14 11:11:00,35.9,15.5,29.96,NNW,333,6.0,6.0,43,0.00,,,0.00,Wunderground v.1.15,2013-03-14 15:11:00,
2013-03-14 11:21:00,36.0,15.6,29.96,NE,36,4.0,10.0,43,0.00,,,0.00,Wunderground v.1.15,2013-03-14 15:21:00,
2013-03-14 11:26:00,36.6,15.6,29.96,North,350,4.0,10.0,42,0.00,,,0.00,Wunderground v.1.15,2013-03-14 15:26:00,
2013-03-14 11:46:00,36.8,15.3,29.95,North,355,4.0,5.0,41,0.00,,,0.00,Wunderground v.1.15,2013-03-14 15:46:00,
2013-03-14 12:06:00,36.9,15.9,29.95,WNW,302,4.0,5.0,42,0.00,,,0.00,Wunderground v.1.15,2013-03-14 16:06:00,
2013-03-14 12:21:00,37.3,14.6,29.95,NNW,342,5.0,7.0,39,0.00,,,0.00,Wunderground v.1.15,2013-03-14 16:21:00,
2013-03-14 12:31:00,38.5,15.1,29.94,SW,236,6.0,6.0,38,0.00,,,0.00,Wunderground v.1.15,2013-03-14 16:31:00,
2013-03-14 12:41:00,38.8,14.7,29.94,North,360,6.0,6.0,37,0.00,,,0.00,Wunderground v.1.15,2013-03-14 16:41:00,
2013-03-14 12:51:00,38.8,14.7,29.93,NNE,15,6.0,8.0,37,0.00,,,0.00,Wunderground v.1.15,2013-03-14 16:51:00,
2013-03-14 13:01:00,39.1,13.7,29.92,NNW,329,6.0,6.0,35,0.00,,,0.00,Wunderground v.1.15,2013-03-14 17:01:00,
2013-03-14 13:11:00,40.1,13.9,29.92,NNW,328,5.0,5.0,34,0.00,,,0.00,Wunderground v.1.15,2013-03-14 17:11:00,
2013-03-14 13:26:00,39.6,14.2,29.92,SW,234,6.0,6.0,35,0.00,,,0.00,Wunderground v.1.15,2013-03-14 17:26:00,
2013-03-14 13:36:00,39.9,13.8,29.92,NW,323,5.0,6.0,34,0.00,,,0.00,Wunderground v.1.15,2013-03-14 17:36:00,
2013-03-14 13:46:00,40.2,14.0,29.92,West,280,6.0,6.0,34,0.00,,,0.00,Wunderground v.1.15,2013-03-14 17:46:00,
2013-03-14 14:06:00,40.8,14.6,29.90,WNW,286,5.0,7.0,34,0.00,,,0.00,Wunderground v.1.15,2013-03-14 18:06:00,
2013-03-14 14:11:00,41.2,13.5,29.90,NNW,330,5.0,5.0,32,0.00,,,0.00,Wunderground v.1.15,2013-03-14 18:11:00,
2013-03-14 14:16:00,40.6,13.0,29.90,WNW,302,5.0,5.0,32,0.00,,,0.00,Wunderground v.1.15,2013-03-14 18:16:00,
2013-03-14 14:31:00,39.3,11.9,29.90,WNW,290,5.0,5.0,32,0.00,,,0.00,Wunderground v.1.15,2013-03-14 18:31:00,
2013-03-14 14:41:00,40.1,13.9,29.90,WNW,289,4.0,4.0,34,0.00,,,0.00,Wunderground v.1.15,2013-03-14 18:41:00,
2013-03-14 14:51:00,41.1,15.5,29.89,WNW,290,4.0,6.0,35,0.00,,,0.00,Wunderground v.1.15,2013-03-14 18:51:00,
2013-03-14 15:01:00,41.3,14.3,29.89,North,9,5.0,7.0,33,0.00,,,0.00,Wunderground v.1.15,2013-03-14 19:01:00,
2013-03-14 15:11:00,42.2,13.7,29.89,NNW,344,5.0,5.0,31,0.00,,,0.00,Wunderground v.1.15,2013-03-14 19:11:00,
2013-03-14 15:21:00,41.5,13.1,29.89,WNW,294,6.0,9.0,31,0.00,,,0.00,Wunderground v.1.15,2013-03-14 19:21:00,
2013-03-14 15:26:00,41.1,12.7,29.89,NNW,347,7.0,9.0,31,0.00,,,0.00,Wunderground v.1.15,2013-03-14 19:26:00,
2013-03-14 15:41:00,40.8,13.2,29.89,NE,35,4.0,4.0,32,0.00,,,0.00,Wunderground v.1.15,2013-03-14 19:41:00,
2013-03-14 15:51:00,41.3,12.9,29.89,NNW,333,5.0,5.0,31,0.00,,,0.00,Wunderground v.1.15,2013-03-14 19:51:00,
2013-03-14 16:01:00,41.5,13.1,29.89,North,360,5.0,5.0,31,0.00,,,0.00,Wunderground v.1.15,2013-03-14 20:01:00,
2013-03-14 16:11:00,41.8,12.6,29.89,WNW,284,5.0,6.0,30,0.00,,,0.00,Wunderground v.1.15,2013-03-14 20:11:00,
2013-03-14 16:26:00,40.9,11.0,29.89,NNW,331,6.0,6.0,29,0.00,,,0.00,Wunderground v.1.15,2013-03-14 20:26:00,
2013-03-14 16:36:00,41.5,11.6,29.89,NW,309,7.0,7.0,29,0.00,,,0.00,Wunderground v.1.15,2013-03-14 20:36:00,
2013-03-14 16:46:00,41.5,9.9,29.89,NW,313,6.0,9.0,27,0.00,,,0.00,Wunderground v.1.15,2013-03-14 20:46:00,
2013-03-14 16:56:00,41.1,11.2,29.89,WNW,290,6.0,8.0,29,0.00,,,0.00,Wunderground v.1.15,2013-03-14 20:56:00,
2013-03-14 17:06:00,41.5,10.8,29.89,NW,321,5.0,6.0,28,0.00,,,0.00,Wunderground v.1.15,2013-03-14 21:06:00,
2013-03-14 17:16:00,41.1,10.4,29.89,NNW,343,5.0,6.0,28,0.00,,,0.00,Wunderground v.1.15,2013-03-14 21:16:00,
2013-03-14 17:26:00,41.2,9.7,29.89,NW,315,6.0,8.0,27,0.00,,,0.00,Wunderground v.1.15,2013-03-14 21:26:00,
2013-03-14 17:31:00,41.6,10.9,29.89,NW,309,6.0,6.0,28,0.00,,,0.00,Wunderground v.1.15,2013-03-14 21:31:00,
2013-03-14 17:41:00,41.5,10.8,29.89,WNW,300,5.0,5.0,28,0.00,,,0.00,Wunderground v.1.15,2013-03-14 21:41:00,
2013-03-14 17:51:00,40.9,10.2,29.89,WNW,303,6.0,6.0,28,0.00,,,0.00,Wunderground v.1.15,2013-03-14 21:51:00,
2013-03-14 18:01:00,41.1,10.4,29.89,NW,306,6.0,6.0,28,0.00,,,0.00,Wunderground v.1.15,2013-03-14 22:01:00,
2013-03-14 18:06:00,41.1,9.6,29.89,NW,310,5.0,6.0,27,0.00,,,0.00,Wunderground v.1.15,2013-03-14 22:06:00,
2013-03-14 18:21:00,40.2,9.6,29.89,North,355,6.0,6.0,28,0.00,,,0.00,Wunderground v.1.15,2013-03-14 22:21:00,
2013-03-14 18:31:00,40.1,9.6,29.90,WNW,283,5.0,5.0,28,0.00,,,0.00,Wunderground v.1.15,2013-03-14 22:31:00,
2013-03-14 18:36:00,39.9,9.4,29.90,WNW,297,5.0,5.0,28,0.00,,,0.00,Wunderground v.1.15,2013-03-14 22:36:00,
2013-03-14 18:46:00,39.5,9.0,29.90,West,281,4.0,6.0,28,0.00,,,0.00,Wunderground v.1.15,2013-03-14 22:46:00,
2013-03-14 18:51:00,39.2,8.8,29.90,NNW,327,5.0,5.0,28,0.00,,,0.00,Wunderground v.1.15,2013-03-14 22:51:00,
2013-03-14 19:01:00,38.8,7.6,29.91,NW,317,5.0,5.0,27,0.00,,,0.00,Wunderground v.1.15,2013-03-14 23:01:00,
2013-03-14 19:11:00,38.5,8.2,29.91,WNW,287,4.0,4.0,28,0.00,,,0.00,Wunderground v.1.15,2013-03-14 23:11:00,
2013-03-14 19:21:00,38.2,8.7,29.91,NW,309,3.0,3.0,29,0.00,,,0.00,Wunderground v.1.15,2013-03-14 23:21:00,
2013-03-14 19:36:00,37.8,9.1,29.92,NNE,16,2.0,3.0,30,0.00,,,0.00,Wunderground v.1.15,2013-03-14 23:36:00,
2013-03-14 19:51:00,37.5,9.6,29.92,WNW,291,2.0,2.0,31,0.00,,,0.00,Wunderground v.1.15,2013-03-14 23:51:00,
2013-03-14 19:56:00,37.3,9.4,29.92,NW,318,2.0,6.0,31,0.00,,,0.00,Wunderground v.1.15,2013-03-14 23:56:00,
2013-03-14 20:06:00,37.2,9.3,29.92,West,261,2.0,4.0,31,0.00,,,0.00,Wunderground v.1.15,2013-03-15 00:06:00,
2013-03-14 20:16:00,36.9,9.0,29.93,WNW,303,1.0,6.0,31,0.00,,,0.00,Wunderground v.1.15,2013-03-15 00:16:00,
2013-03-14 20:21:00,36.8,9.7,29.93,WNW,290,1.0,1.0,32,0.00,,,0.00,Wunderground v.1.15,2013-03-15 00:21:00,
2013-03-14 20:31:00,36.5,10.1,29.93,WNW,298,0.0,0.0,33,0.00,,,0.00,Wunderground v.1.15,2013-03-15 00:31:00,
2013-03-14 20:46:00,35.9,10.2,29.93,West,264,1.0,1.0,34,0.00,,,0.00,Wunderground v.1.15,2013-03-15 00:46:00,
2013-03-14 21:01:00,35.6,10.6,29.93,NW,309,1.0,7.0,35,0.00,,,0.00,Wunderground v.1.15,2013-03-15 01:01:00,
2013-03-14 21:11:00,35.9,10.2,29.93,WNW,289,2.0,2.0,34,0.00,,,0.00,Wunderground v.1.15,2013-03-15 01:11:00,
2013-03-14 21:21:00,35.9,9.5,29.94,NW,325,2.0,2.0,33,0.00,,,0.00,Wunderground v.1.15,2013-03-15 01:21:00,
2013-03-14 21:31:00,35.6,9.3,29.95,West,279,2.0,2.0,33,0.00,,,0.00,Wunderground v.1.15,2013-03-15 01:31:00,
2013-03-14 21:41:00,35.3,9.7,29.95,NNW,344,1.0,2.0,34,0.00,,,0.00,Wunderground v.1.15,2013-03-15 01:41:00,
2013-03-14 21:51:00,35.2,10.2,29.95,WNW,297,1.0,1.0,35,0.00,,,0.00,Wunderground v.1.15,2013-03-15 01:51:00,
2013-03-14 22:01:00,35.2,10.2,29.95,WNW,302,2.0,2.0,35,0.00,,,0.00,Wunderground v.1.15,2013-03-15 02:01:00,
2013-03-14 22:06:00,35.0,10.1,29.95,WNW,286,1.0,2.0,35,0.00,,,0.00,Wunderground v.1.15,2013-03-15 02:06:00,
2013-03-14 22:11:00,34.9,10.0,29.95,WNW,297,2.0,2.0,35,0.00,,,0.00,Wunderground v.1.15,2013-03-15 02:11:00,
2013-03-14 22:21:00,34.9,10.0,29.96,WNW,300,2.0,6.0,35,0.00,,,0.00,Wunderground v.1.15,2013-03-15 02:21:00,
2013-03-14 22:26:00,34.9,10.0,29.96,WNW,292,2.0,6.0,35,0.00,,,0.00,Wunderground v.1.15,2013-03-15 02:26:00,
2013-03-14 22:36:00,34.6,9.7,29.96,West,271,1.0,2.0,35,0.00,,,0.00,Wunderground v.1.15,2013-03-15 02:36:00,
2013-03-14 22:46:00,34.4,9.5,29.96,West,275,1.0,2.0,35,0.00,,,0.00,Wunderground v.1.15,2013-03-15 02:46:00,
2013-03-14 22:51:00,34.4,9.5,29.96,North,360,1.0,1.0,35,0.00,,,0.00,Wunderground v.1.15,2013-03-15 02:51:00,
2013-03-14 23:06:00,34.3,9.4,29.97,NW,316,1.0,3.0,35,0.00,,,0.00,Wunderground v.1.15,2013-03-15 03:06:00,
2013-03-14 23:16:00,33.8,9.6,29.97,NW,321,0.0,1.0,36,0.00,,,0.00,Wunderground v.1.15,2013-03-15 03:16:00,
2013-03-14 23:26:00,33.5,10.0,29.97,WSW,238,1.0,1.0,37,0.00,,,0.00,Wunderground v.1.15,2013-03-15 03:26:00,
2013-03-14 23:31:00,33.5,10.0,29.98,WNW,285,2.0,2.0,37,0.00,,,0.00,Wunderground v.1.15,2013-03-15 03:31:00,
2013-03-14 23:46:00,33.1,9.6,29.98,NW,311,0.0,2.0,37,0.00,,,0.00,Wunderground v.1.15,2013-03-15 03:46:00,
2013-03-14 23:56:00,32.9,9.4,29.98,NW,304,1.0,2.0,37,0.00,,,0.00,Wunderground v.1.15,2013-03-15 03:56:00,